www.pogodaiklimat.ru

Погода и климат >> Архив погоды >> Австралия >> Западная Австралия >> Остров Брауз


ПОГОДА на Острове Брауз

  • Прогноз погоды на Острове Брауз
  • Монитор погоды на Острове Брауз

АРХИВ ПОГОДЫ на Острове Брауз

Время (UTC), дата Ветер
(напр.,м/с)
 
Видим.   Явления Облачность Т
(С)
Тd
(С)
f
(%)
Тe
(С)
Тes
(С)
Комфортность P
(гПа)
Po
(гПа)
Тmin
(С)
Tmax
(С)
R
(мм)
R24
(мм)
S
(см)
10 11.06 Ю 6 н/о н/о +27.1 +22 +22 комфорт 1013.8 1013.3
12 11.06 Ю 6 н/о н/о +27.1 +22 +22 комфорт 1014.7 1014.2
13 11.06 Ю 6 н/о н/о +27.1 +22 +22 комфорт 1015.0 1014.5 +28.2
15 11.06 Ю 7 н/о н/о +26.9 +22 +22 комфорт 1014.8 1014.3
16 11.06 Ю 8 н/о н/о +26.8 +22 +22 комфорт 1014.4 1013.9
18 11.06 Ю 9 н/о н/о +26.8 +22 +22 комфорт 1013.9 1013.4
19 11.06 Ю 9 н/о н/о +26.7 +22 +22 комфорт 1013.8 1013.3
21 11.06 Ю 8 н/о н/о +27.0 +22 +22 комфорт 1014.3 1013.8
22 11.06 Ю 9 н/о н/о +27.0 +22 +22 комфорт 1014.8 1014.3
00 12.06 Ю 8 н/о н/о +26.8 +22 +22 комфорт 1016.2 1015.7
01 12.06 ЮВ 8 н/о н/о +27.0 +22 +22 комфорт 1016.0 1015.5 +26.5
03 12.06 Ю 7 н/о н/о +26.9 +22 +22 комфорт 1014.9 1014.4
04 12.06 Ю 7 н/о н/о +26.6 +22 +22 комфорт 1014.0 1013.5
06 12.06 Ю 7 н/о н/о +27.1 +22 +22 комфорт 1012.4 1011.9
07 12.06 Ю 7 н/о н/о +26.9 +22 +22 комфорт 1012.1 1011.6
09 12.06 Ю 7 н/о н/о +27.1 +22 +22 комфорт 1012.7 1012.2
10 12.06 Ю 7 н/о н/о +27.1 +22 +22 комфорт 1013.1 1012.6
12 12.06 Ю 6 н/о н/о +27.2 +22 +22 комфорт 1014.2 1013.7
13 12.06 Ю 6 н/о н/о +27.3 +23 +23 комфорт 1014.3 1013.8 +27.5
15 12.06 Ю 6 н/о н/о +27.6 +23 +23 комфорт 1013.8 1013.3
16 12.06 Ю 7 н/о н/о +27.6 +23 +23 комфорт 1013.6 1013.1
18 12.06 Ю 7 н/о н/о +27.8 +23 +23 комфорт 1012.6 1012.1
19 12.06 Ю 7 н/о н/о +27.7 +23 +23 комфорт 1012.2 1011.7
21 12.06 Ю 7 н/о н/о +27.8 +23 +23 комфорт 1012.3 1011.8
22 12.06 Ю 6 н/о н/о +27.9 +23 +23 комфорт 1012.6 1012.1
00 13.06 Ю 5 н/о н/о +27.9 +23 +23 комфорт 1014.0 1013.5
01 13.06 Ю 1 н/о н/о +28.4 +23 +23 комфорт 1014.3 1013.8 +26.4
03 13.06 ЮВ 3 н/о н/о +28.4 +23 +23 комфорт 1013.7 1013.2
04 13.06 ЮВ 3 н/о н/о +28.7 +24 +24 комфорт 1012.8 1012.3
06 13.06 СВ 3 н/о н/о +29.1 +24 +24 комфорт 1011.7 1011.2
07 13.06 СВ 3 н/о н/о +28.6 +24 +24 комфорт 1011.5 1011.0
09 13.06 штиль 0 н/о н/о +27.5 +23 +23 комфорт 1012.2 1011.7
10 13.06 штиль 0 н/о н/о +27.2 +22 +22 комфорт 1012.8 1012.3
12 13.06 штиль 0 н/о н/о +26.9 +22 +22 комфорт 1014.0 1013.5
13 13.06 штиль 0 н/о н/о +27.2 +22 +22 комфорт 1014.1 1013.6 +30.1
15 13.06 штиль 0 н/о н/о +26.9 +22 +22 комфорт 1014.2 1013.7
16 13.06 штиль 0 н/о н/о +26.5 +22 +22 комфорт 1014.4 1013.9
18 13.06 штиль 0 н/о н/о +26.7 +22 +22 комфорт 1013.6 1013.1
19 13.06 штиль 0 н/о н/о +26.7 +22 +22 комфорт 1013.2 1012.7
21 13.06 штиль 0 н/о н/о +26.5 +22 +22 комфорт 1013.0 1012.5
22 13.06 СЗ 1 н/о н/о +26.5 +22 +22 комфорт 1013.3 1012.8
00 14.06 ЮЗ 2 н/о н/о +27.0 +22 +22 комфорт 1014.1 1013.6
01 14.06 ЮЗ 2 н/о н/о +27.3 +23 +23 комфорт 1013.8 1013.3 +26.4
03 14.06 штиль 0 н/о н/о +27.7 +23 +23 комфорт 1012.8 1012.3
04 14.06 ЮЗ 3 н/о н/о +27.6 +23 +23 комфорт 1012.3 1011.8
06 14.06 штиль 0 н/о н/о +28.2 +23 +23 комфорт 1010.8 1010.3
07 14.06 штиль 0 н/о н/о +28.2 +23 +23 комфорт 1010.5 1010.0
09 14.06 СЗ 2 н/о н/о +27.4 +23 +23 комфорт 1011.2 1010.7
10 14.06 СЗ 3 н/о н/о +27.2 +22 +22 комфорт 1011.9 1011.4
12 14.06 СЗ 4 н/о н/о +27.1 +22 +22 комфорт 1012.9 1012.4
13 14.06 З 4 н/о н/о +27.1 +22 +22 комфорт 1013.1 1012.6 +28.8
15 14.06 З 3 н/о н/о +26.9 +22 +22 комфорт 1013.6 1013.1
16 14.06 З 3 н/о н/о +27.0 +22 +22 комфорт 1013.5 1013.0
18 14.06 СЗ 4 н/о н/о +26.8 +22 +22 комфорт 1012.8 1012.3
19 14.06 СЗ 4 н/о н/о +26.6 +22 +22 комфорт 1012.5 1012.0
21 14.06 СЗ 5 н/о н/о +26.6 +22 +22 комфорт 1013.0 1012.5
22 14.06 СЗ 5 н/о н/о +26.7 +22 +22 комфорт 1013.4 1012.9
00 15.06 З 4 н/о н/о +26.6 +22 +22 комфорт 1014.6 1014.1
01 15.06 З 5 н/о н/о +27.0 +22 +22 комфорт 1015.0 1014.5 +26.6
03 15.06 З 5 н/о н/о +26.9 +22 +22 комфорт 1013.9 1013.4
04 15.06 З 4 н/о н/о +27.0 +22 +22 комфорт 1013.2 1012.7
06 15.06 штиль 0 н/о н/о +27.5 +23 +23 комфорт 1012.0 1011.5
07 15.06 штиль 0 н/о н/о +27.6 +23 +23 комфорт 1011.6 1011.1
09 15.06 штиль 0 н/о н/о +27.2 +22 +22 комфорт 1012.2 1011.7
10 15.06 штиль 0 н/о н/о +26.8 +22 +22 комфорт 1012.7 1012.2
12 15.06 штиль 0 н/о н/о +26.5 +22 +22 комфорт 1013.5 1013.0
13 15.06 штиль 0 н/о н/о +26.5 +22 +22 комфорт 1014.0 1013.5 +28.3
15 15.06 штиль 0 н/о н/о +26.2 +22 +22 комфорт 1013.7 1013.2
16 15.06 штиль 0 н/о н/о +26.3 +22 +22 комфорт 1013.5 1013.0
18 15.06 штиль 0 н/о н/о +26.5 +22 +22 комфорт 1013.2 1012.7
19 15.06 штиль 0 н/о н/о +26.6 +22 +22 комфорт 1013.0 1012.5
21 15.06 штиль 0 н/о н/о +26.4 +22 +22 комфорт 1012.8 1012.3
22 15.06 штиль 0 н/о н/о +26.5 +22 +22 комфорт 1013.2 1012.7
00 16.06 Ю 4 н/о н/о +26.8 +22 +22 комфорт 1014.5 1014.0
01 16.06 З 1 н/о н/о +27.3 +23 +23 комфорт 1015.0 1014.5 +26.0
03 16.06 штиль 0 н/о н/о +28.1 +23 +23 комфорт 1014.2 1013.7
04 16.06 штиль 0 н/о н/о +28.4 +23 +23 комфорт 1013.4 1012.9
06 16.06 СЗ 3 н/о н/о +28.1 +23 +23 комфорт 1012.4 1011.9
07 16.06 СЗ 4 н/о н/о +27.3 +23 +23 комфорт 1012.3 1011.8
09 16.06 СЗ 4 н/о н/о +27.3 +23 +23 комфорт 1012.7 1012.2
10 16.06 СЗ 4 н/о н/о +26.8 +22 +22 комфорт 1013.3 1012.8
12 16.06 СЗ 3 н/о н/о +27.0 +22 +22 комфорт 1014.3 1013.8
13 16.06 СЗ 4 н/о н/о +26.9 +22 +22 комфорт 1014.6 1014.1 +29.5
15 16.06 СЗ 4 н/о н/о +26.7 +22 +22 комфорт 1014.4 1013.9
16 16.06 СЗ 4 н/о н/о +26.6 +22 +22 комфорт 1014.5 1014.0
18 16.06 СЗ 3 н/о н/о +26.6 +22 +22 комфорт 1014.1 1013.6
19 16.06 З 3 н/о н/о +26.5 +22 +22 комфорт 1014.0 1013.5
21 16.06 З 3 н/о н/о +26.5 +22 +22 комфорт 1014.3 1013.8
22 16.06 ЮЗ 5 н/о н/о +26.4 +22 +22 комфорт 1014.6 1014.1
00 17.06 ЮЗ 2 н/о н/о +26.5 +22 +22 комфорт 1015.4 1014.9
01 17.06 ЮЗ 3 н/о н/о +26.8 +22 +22 комфорт 1015.2 1014.7 +26.4
03 17.06 ЮЗ 3 н/о н/о +26.8 +22 +22 комфорт 1014.6 1014.1
04 17.06 З 3 н/о н/о +27.0 +22 +22 комфорт 1013.8 1013.3
06 17.06 штиль 0 н/о н/о +27.8 +23 +23 комфорт 1012.4 1011.9
07 17.06 штиль 0 н/о н/о +27.7 +23 +23 комфорт 1012.2 1011.7
09 17.06 ЮЗ 2 н/о н/о +27.5 +23 +23 комфорт 1013.0 1012.5
10 17.06 ЮЗ 3 н/о н/о +27.2 +22 +22 комфорт 1013.5 1013.0
12 17.06 ЮЗ 2 н/о н/о +27.1 +22 +22 комфорт 1014.6 1014.1
13 17.06 штиль 0 н/о н/о +26.8 +22 +22 комфорт 1014.9 1014.4 +28.5
15 17.06 штиль 0 н/о н/о +26.6 +22 +22 комфорт 1014.9 1014.4
16 17.06 штиль 0 н/о н/о +26.7 +22 +22 комфорт 1014.9 1014.4
18 17.06 С 3 н/о н/о +26.8 +22 +22 комфорт 1014.1 1013.6
19 17.06 С 3 н/о н/о +26.9 +22 +22 комфорт 1013.9 1013.4
21 17.06 С 2 н/о н/о +26.7 +22 +22 комфорт 1013.8 1013.3
22 17.06 штиль 0 н/о н/о +26.4 +22 +22 комфорт 1013.9 1013.4
00 18.06 штиль 0 н/о н/о +27.2 +22 +22 комфорт 1014.6 1014.1
01 18.06 штиль 0 н/о н/о +27.6 +23 +23 комфорт 1015.0 1014.5 +26.3
03 18.06 Ю 1 н/о н/о +28.0 +23 +23 комфорт 1014.5 1014.0
04 18.06 штиль 0 н/о н/о +28.9 +24 +24 комфорт 1013.9 1013.4
06 18.06 штиль 0 н/о н/о +28.0 +23 +23 комфорт 1012.7 1012.2
07 18.06 С 1 н/о н/о +28.2 +23 +23 комфорт 1012.4 1011.9
09 18.06 СВ 1 н/о н/о +27.4 +23 +23 комфорт 1013.1 1012.6

 

Местоположение метеостанции Остров Брауз (Западная Австралия, Австралия): широта -14.11 долгота 123.55 высота над уровнем моря 5 м.

В архиве по умолчанию представлена погода на Острове Брауз за последнюю неделю. Архивные данные за месяц целиком и за предыдущие месяцы, начиная с января 2011 года, Вы можете получить, выбрав интересующий диапазон дат из раскрывающегося списка и нажав кнопку "Ввод!".


*Определитесь, кто Вы:
робот инопланетянин человек

Внимание! Время в таблицах - всемирное. Для получения местного времени необходимо прибавить поправку, которая равна 8 ч.

Смотрите также архив погоды в соседних городах и на ближайших метеорологических станциях:

Погода на Острове Адель (Западная Австралия, Австралия) (162 км)
Погода на Острове Троутон (Западная Австралия, Австралия) (284 км)
Погода в Трускотте (Западная Австралия, Австралия) (305 км)
Погода в Калумбуру (Западная Австралия, Австралия) (335 км)
Погода в Дерби (Северная территория, Австралия) (362 км)
Погода на Роти (Индонезия) (380 км)
Погода на Базе ВВС Curtin (Западная Австралия, Австралия) (387 км)
Погода в Купанге (Индонезия) (440 км)
Погода в Робак Запад (Западная Австралия, Австралия) (442 км)
Погода в Сабу (Индонезия) (443 км)

Пояснения к столбцам:

Ветер - указаны скорость ветра в м/с - средняя за 10 мин, порывы в срок и между сроками (в фигурных скобках) и направление, откуда дует ветер: С - северный, СВ - северо-восточный, В - восточный, ЮВ - юго-восточный, Ю - южный, ЮЗ - юго-западный, З - западный, СЗ - северо-западный.
Видимость - горизонтальная дальность видимости в метрах или километрах. При видимости от 1 до 10 км при отсутствии осадков обычно наблюдается дымка, при ухудшении видимости до 1 км и менее - туман. В сухую погоду видимость может ухудшаться дымом, пылью или мглою.
Явления - указаны атмосферные явления, наблюдавшиеся в срок или в последний час перед сроком; фигурными скобками обозначены явления, наблюдавшиеся между сроками (за 1-3 часа до срока); квадратными скобками обозначены град или гололедные отложения с указанием их диаметра в мм.
Облачность - указаны через наклонную черту общая и нижняя облачность в баллах и высота нижней границы облаков в метрах; квадратными скобками обозначены формы облаков: Ci - перистые, Cs - перисто-слоистые, Cc - перисто-кучевые, Ac - высококучевые, As - высокослоистые, Sc - слоисто-кучевые, Ns - слоисто-дождевые, Cu - кучевые, Cb - кучево-дождевые. Подробнее классификацию облаков см. в Атласе облаков (PDF).
T - Температура воздуха - температура, измеренная на высоте 2 м над землей.
Td - Температура точки росы - температура, при понижении до которой содержащийся в воздухе водяной пар достигнет насыщения.
f - Относительная влажность воздуха - влажноcть воздуха, измеренная на высоте 2 м над землей.
Te - Эффективная температура - температура, которую ощущает одетый по сезону человек в тени. Характеристика душности погоды. При расчете учитывается влияние влажности воздуха и скорости ветра на теплоощущения человека.
Tes - Эффективная температура на солнце - температура, которую ощущает человек, с поправкой на солнечный нагрев. Характеристика знойности погоды. Зависит от высоты солнца над горизонтом, облачности и скорости ветра. Ночью, в пасмурную погоду, а также при ветре 12 м/с и более поправка равна нулю.
P - Атмосферное давление - приведенное к уровню моря атмосферное давление.
Po - Атмосферное давление - измеренное на уровне метеостанции атмосферное давление.
Tmin - Минимальная температура - минимум температуры воздуха на высоте 2 м над землей.
Tmax - Максимальная температура - максимум температуры воздуха на высоте 2 м над землей.
R - Количество осадков - Количество выпавших осадков за период времени, мм. При наведении курсора мыши на число - период времени, за который выпало указанное количество осадков.
R24 - Количество осадков - Количество выпавших осадков за 24 часа, мм.
S - Снежный покров - Высота снежного покрова, см. При наведении курсора мыши на число - состояние снежного покрова и степень покрытия местности в баллах.